Location: Burzi?i
(45.0869°N, 16.0577°E)
Time: 12:10:11
(UTC+00:00)

Cosmos 1812 Rocket - Pass Details

Date: 29 October 2020
Orbit: 605 x 633 km, 82.5° (Epoch: 28 November)

Event Time Altitude Azimuth Distance (km) Brightness Sun altitude
Rises 17:20:11 0° 175° (S) 2,889 7.0 -16.8°
Reaches altitude 10° 17:22:26 10° 171° (S) 1,984 6.1 -17.2°
Maximum altitude 17:26:43 54° 94° (E) 756 3.6 -18.0°
Drops below altitude 10° 17:31:00 10° 18° (NNE) 1,983 6.0 -18.8°
Sets 17:33:15 0° 14° (NNE) 2,888 6.9 -19.2°
